When you browse on this site, cookies collect data to enhance your experience and personalize the content and advertising you see.
Visit our Privacy Policy to learn more. By continuing to use the site, you agree to this use of cookies and data.
  • In Hungary
  • List of Countries
  • For 7 days
  • Water Temperature
  • Satellite Maps
  • Weather Map
  • News
  • Weather Widgets
  • user-avatar
    Login

    Hourly Weather Chinnamanur

    Today, 21 November, Wednesday

    Time Temperature Precipitation Wind Pressure Humidity
    00:00 +25°C° 0.1 mm 1 mps 726 mmHg 85%
    01:00 +25°C° 0.1 mm 1 mps 726 mmHg 85%
    02:00 +25°C° 0.1 mm 1 mps 725 mmHg 85%
    03:00 +25°C° 0 mm 1 mps 725 mmHg 85%
    04:00 +25°C° 0 mm 1 mps 725 mmHg 85%
    05:00 +24°C° 0 mm 1 mps 725 mmHg 85%
    06:00 +25°C° 0 mm 1 mps 726 mmHg 81%
    07:00 +27°C° 0 mm 1 mps 726 mmHg 77%
    08:00 +28°C° 0 mm 1 mps 726 mmHg 73%
    09:00 +29°C° 0.1 mm 1 mps 726 mmHg 68%
    10:00 +30°C° 0.1 mm 1 mps 726 mmHg 63%
    11:00 +31°C° 0.1 mm 1 mps 726 mmHg 57%
    12:00 +31°C° 0.5 mm 1 mps 725 mmHg 57%
    13:00 +32°C° 0.5 mm 2 mps 725 mmHg 56%
    14:00 +32°C° 0.5 mm 2 mps 724 mmHg 55%
    15:00 +31°C° 0.8 mm 2 mps 724 mmHg 63%
    16:00 +29°C° 0.8 mm 1 mps 724 mmHg 70%
    17:00 +28°C° 0.8 mm 1 mps 724 mmHg 77%
    18:00 +28°C° 0.2 mm 1 mps 725 mmHg 79%
    19:00 +27°C° 0.2 mm 1 mps 725 mmHg 81%
    20:00 +24°C° 0.2 mm 0 mps 726 mmHg 82%
    21:00 +24°C° 0.1 mm 0 mps 726 mmHg 83%
    22:00 +24°C° 0.1 mm 0 mps 726 mmHg 83%
    23:00 +24°C° 0.1 mm 0 mps 726 mmHg 83%

    Tomorrow, 22 November, Thursday

    Time Temperature Precipitation Wind Pressure Humidity
    00:00 +24°C° 0 mm 0 mps 725 mmHg 84%
    01:00 +24°C° 0 mm 0 mps 725 mmHg 84%
    02:00 +24°C° 0 mm 0 mps 725 mmHg 85%
    03:00 +23°C° 0.1 mm 0 mps 725 mmHg 86%
    04:00 +23°C° 0.1 mm 0 mps 725 mmHg 87%
    05:00 +23°C° 0.1 mm 0 mps 725 mmHg 87%
    06:00 +24°C° 0 mm 0 mps 725 mmHg 84%
    07:00 +25°C° 0 mm 0 mps 726 mmHg 81%
    08:00 +26°C° 0 mm 0 mps 727 mmHg 77%
    09:00 +28°C° 0.3 mm 1 mps 727 mmHg 74%
    10:00 +29°C° 0.3 mm 1 mps 727 mmHg 70%
    11:00 +30°C° 0.3 mm 1 mps 727 mmHg 67%
    12:00 +30°C° 0.8 mm 1 mps 726 mmHg 68%
    13:00 +30°C° 0.8 mm 1 mps 725 mmHg 69%
    14:00 +30°C° 0.8 mm 1 mps 724 mmHg 70%
    15:00 +29°C° 1.1 mm 1 mps 724 mmHg 74%
    16:00 +28°C° 1.1 mm 1 mps 724 mmHg 79%
    17:00 +28°C° 1.1 mm 1 mps 724 mmHg 83%
    18:00 +27°C° 1.2 mm 1 mps 725 mmHg 84%
    19:00 +26°C° 1.2 mm 1 mps 726 mmHg 86%
    20:00 +26°C° 1.2 mm 1 mps 727 mmHg 88%
    21:00 +26°C° 0.3 mm 1 mps 727 mmHg 88%
    22:00 +25°C° 0.3 mm 1 mps 727 mmHg 89%
    23:00 +25°C° 0.3 mm 1 mps 727 mmHg 89%

    Day after tomorrow, 23 November, Friday

    Time Temperature Precipitation Wind Pressure Humidity
    00:00 +25°C° 0.1 mm 1 mps 726 mmHg 89%
    01:00 +25°C° 0.1 mm 1 mps 726 mmHg 90%
    02:00 +25°C° 0.1 mm 1 mps 726 mmHg 90%
    03:00 +25°C° 0 mm 1 mps 726 mmHg 90%
    04:00 +24°C° 0 mm 1 mps 726 mmHg 90%
    05:00 +24°C° 0 mm 1 mps 726 mmHg 90%
    06:00 +25°C° 0 mm 1 mps 727 mmHg 87%
    07:00 +26°C° 0 mm 1 mps 728 mmHg 84%
    08:00 +26°C° 0 mm 1 mps 728 mmHg 81%
    09:00 +27°C° 0.2 mm 2 mps 728 mmHg 76%
    10:00 +29°C° 0.2 mm 2 mps 728 mmHg 71%
    11:00 +30°C° 0.2 mm 2 mps 728 mmHg 66%
    12:00 +30°C° 0.5 mm 2 mps 727 mmHg 66%
    13:00 +30°C° 0.5 mm 2 mps 726 mmHg 67%
    14:00 +30°C° 0.5 mm 2 mps 726 mmHg 67%
    15:00 +29°C° 0.5 mm 1 mps 726 mmHg 72%
    16:00 +28°C° 0.5 mm 1 mps 726 mmHg 77%
    17:00 +27°C° 0.5 mm 1 mps 726 mmHg 82%
    18:00 +27°C° 0.1 mm 1 mps 726 mmHg 84%
    19:00 +26°C° 0.1 mm 1 mps 727 mmHg 86%
    20:00 +25°C° 0.1 mm 1 mps 728 mmHg 87%
    21:00 +25°C° 0.1 mm 1 mps 728 mmHg 88%
    22:00 +25°C° 0.1 mm 1 mps 728 mmHg 89%
    23:00 +25°C° 0.1 mm 1 mps 728 mmHg 89%

    24 November, Saturday

    Time Temperature Precipitation Wind Pressure Humidity
    00:00 +24°C° 0 mm 1 mps 728 mmHg 89%
    01:00 +24°C° 0 mm 1 mps 727 mmHg 89%
    02:00 +24°C° 0 mm 1 mps 726 mmHg 89%
    03:00 +24°C° 0 mm 1 mps 727 mmHg 89%
    04:00 +24°C° 0 mm 1 mps 727 mmHg 89%
    05:00 +24°C° 0 mm 1 mps 727 mmHg 89%
    06:00 +25°C° 0 mm 1 mps 728 mmHg 85%
    07:00 +26°C° 0 mm 1 mps 728 mmHg 80%
    08:00 +27°C° 0 mm 1 mps 729 mmHg 76%
    09:00 +28°C° 0 mm 2 mps 729 mmHg 70%
    10:00 +30°C° 0 mm 2 mps 729 mmHg 65%
    11:00 +31°C° 0 mm 2 mps 729 mmHg 60%
    12:00 +31°C° 0.9 mm 2 mps 728 mmHg 62%
    13:00 +31°C° 0.9 mm 2 mps 727 mmHg 64%
    14:00 +31°C° 0.9 mm 2 mps 726 mmHg 66%
    15:00 +30°C° 1.1 mm 2 mps 726 mmHg 70%
    16:00 +29°C° 1.1 mm 1 mps 726 mmHg 75%
    17:00 +28°C° 1.1 mm 1 mps 726 mmHg 79%
    18:00 +27°C° 0.6 mm 1 mps 727 mmHg 81%
    19:00 +26°C° 0.6 mm 1 mps 728 mmHg 84%
    20:00 +25°C° 0.6 mm 1 mps 729 mmHg 86%
    21:00 +25°C° 0.1 mm 1 mps 728 mmHg 87%
    22:00 +25°C° 0.1 mm 1 mps 728 mmHg 88%
    23:00 +25°C° 0.1 mm 1 mps 728 mmHg 88%

    25 November, Sunday

    Time Temperature Precipitation Wind Pressure Humidity
    00:00 +25°C° 0 mm 1 mps 728 mmHg 89%
    01:00 +24°C° 0 mm 1 mps 727 mmHg 89%
    02:00 +22°C° 0 mm 0 mps 727 mmHg 90%
    03:00 +22°C° 0 mm 0 mps 727 mmHg 90%
    04:00 +24°C° 0 mm 1 mps 727 mmHg 90%
    05:00 +23°C° 0 mm 1 mps 727 mmHg 90%
    06:00 +25°C° 0 mm 1 mps 728 mmHg 85%
    07:00 +26°C° 0 mm 1 mps 728 mmHg 79%
    08:00 +27°C° 0 mm 1 mps 729 mmHg 74%
    09:00 +29°C° 0 mm 1 mps 729 mmHg 68%
    10:00 +30°C° 0 mm 1 mps 729 mmHg 62%
    11:00 +31°C° 0 mm 2 mps 728 mmHg 56%
    12:00 +31°C° 0.2 mm 2 mps 727 mmHg 59%
    13:00 +31°C° 0.2 mm 2 mps 726 mmHg 61%
    14:00 +30°C° 0.2 mm 2 mps 726 mmHg 63%
    15:00 +30°C° 0.4 mm 2 mps 726 mmHg 67%
    16:00 +29°C° 0.4 mm 1 mps 726 mmHg 71%
    17:00 +28°C° 0.4 mm 1 mps 726 mmHg 75%
    18:00 +27°C° 0.1 mm 1 mps 726 mmHg 77%
    19:00 +27°C° 0.1 mm 1 mps 727 mmHg 79%
    20:00 +26°C° 0.1 mm 1 mps 727 mmHg 80%
    21:00 +25°C° 0 mm 1 mps 727 mmHg 82%
    22:00 +25°C° 0 mm 1 mps 727 mmHg 83%
    23:00 +24°C° 0 mm 1 mps 727 mmHg 85%

    26 November, Monday

    Time Temperature Precipitation Wind Pressure Humidity
    00:00 +24°C° 0 mm 1 mps 726 mmHg 86%
    01:00 +24°C° 0 mm 1 mps 726 mmHg 87%
    02:00 +24°C° 0 mm 1 mps 725 mmHg 88%
    03:00 +23°C° 0 mm 1 mps 725 mmHg 88%
    04:00 +23°C° 0 mm 1 mps 725 mmHg 88%
    05:00 +23°C° 0 mm 1 mps 726 mmHg 89%
    06:00 +24°C° 0 mm 1 mps 726 mmHg 84%
    07:00 +25°C° 0 mm 1 mps 727 mmHg 79%
    08:00 +27°C° 0 mm 1 mps 728 mmHg 74%
    09:00 +28°C° 0 mm 1 mps 727 mmHg 69%
    10:00 +29°C° 0 mm 2 mps 727 mmHg 64%
    11:00 +31°C° 0 mm 2 mps 727 mmHg 59%
    12:00 +30°C° 0.1 mm 2 mps 726 mmHg 60%
    13:00 +30°C° 0.1 mm 2 mps 725 mmHg 62%
    14:00 +30°C° 0.1 mm 2 mps 725 mmHg 64%
    15:00 +29°C° 0.1 mm 2 mps 725 mmHg 68%
    16:00 +28°C° 0.1 mm 1 mps 725 mmHg 72%
    17:00 +27°C° 0.1 mm 1 mps 725 mmHg 76%
    18:00 +27°C° 0.1 mm 1 mps 725 mmHg 79%
    19:00 +26°C° 0.1 mm 1 mps 726 mmHg 81%
    20:00 +25°C° 0.1 mm 1 mps 726 mmHg 84%
    21:00 +25°C° 0 mm 1 mps 726 mmHg 85%
    22:00 +24°C° 0 mm 1 mps 726 mmHg 86%
    23:00 +24°C° 0 mm 1 mps 726 mmHg 88%
    Show more